STARLINK-32844, 62820

Orbit data source: Space-Track

STARLINK-32844, 62820 is a payload satellite owned by SpaceX/Seattle (US) in LEO that was launched on Fri, 24 Jan 2025 UTC via an FALCON 9 launch vehicle from the Air Force Western Test Range (AFWTR). Payload-class satellites include a variety of spacecraft equipped with specific instruments for various scientific and technological missions. These include communications satellites like Starlink; space stations such as the ISS; scientific satellites like the Hubble; Earth observation satellites from companies like Planet Labs, Umbra, and HawkEye 360; GPS; miniature CubeSats for education and research; and military/defense satellites.

Loading next visibility...
Identifier
62820, 2025-018Q
Orbit
LEO
Country
Flag of USUS
Related business
Manufacturer
SpaceX/Seattle
Mission
Operational Commercial Communications
Bus & Motor
STARLINK V2M, Unknown motor
Mass
730 kg wet, ~700 kg dry
Launch date (UTC)
2025-01-24 (1 year ago)
Launch vehicle
FALCON 9
Launch site
Air Force Western Test Range (AFWTR)
Object type
Payload
Rocket body
Debris
Shape & HBR
Box + 2 Pan, 17.7 m
Radar Cross Section
33.884 m², Large (>1 m²)

Expand to show TLE details & history
Last TLE update: 11 hours ago

TLE from 11 hours ago
0 STARLINK-32844
1 62820U 25018Q   26128.00002315 -.00005987  00000-0 -18125-3 0  9995
2 62820  53.1595  34.0141 0001263  90.6398 151.0774 15.31708712  5834
Epoch: 2026-05-08T00:00Z
TLE epoch observation values (Epoch: 2026-05-08T00:00:02.000Z)
Latitude
-45.006°
Longitude
36.34555°
Altitude
486.702 km
Speed
7.621 km/s
True Right ascension
17h 28m 46s
True Declination
-44° 49' 38"
Sunlit
Object was in full shadow at epoch
Visualization orbit readout
Latitude
Unknown
Longitude
Unknown
Altitude
Unknown
Speed
Unknown
Apparent Right ascension
Unknown
Apparent Declination
Unknown
Sunlit
N/A
Visualization observer readout
Local Sidereal Time
18:51:10
Azimuth
Unknown
Elevation
Unknown
Doppler factor
Unknown
Orbital elements
Apogee altitude
471.836 km
Perigee altitude
470.106 km
Semi-major axis
6,849.108 km
Eccentricity
0.00013
Inclination
53.1595°
RAAN
34.0141°
Arg. of periapsis
90.6398°
True anomaly
151.0844°
Mean anomaly
151.0774°
Eccentric anomaly
151.0809°
Mean motion
3.82906 °/min
Orbital period
94.02 mins
BSTAR
-0.00018125
Loading maneuver chart data...
Computing Atmospheric mass density...
Loading historical data...
Loading historical data...
Loading historical data...
Loading historical data...
Loading historical data...
Loading historical data...
Loading historical data...

Documentation

Showing up to 5 results
|